Weather History for Houston / Dunn Helistop, TX

Change the Weather History Date:

Friday, December 27, 2013

  Actual Average (KHOU) Record (KHOU)
Temperature  
Mean Temperature 54 °F 53 °F  
Max Temperature 57 °F 63 °F 81 °F (1971)
Min Temperature 50 °F 43 °F 19 °F (1892)
Degree Days  
Heating Degree Days 12 13  
Month to date heating degree days 303  
Since 1 July heating degree days 488  
Growing Degree Days 4 (Base 50)    
Moisture  
Dew Point 38 °F    
Average Humidity 57    
Maximum Humidity 76    
Minimum Humidity 44    
Precipitation  
Precipitation 0.00 in 0.11 in 1.38 in (1934)
Month to date precipitation 3.33  
Year to date precipitation 49.36  
Sea Level Pressure  
Sea Level Pressure 30.33 in    
Wind  
Wind Speed 7 mph (NNE)    
Max Wind Speed 14 mph    
Max Gust Speed 20 mph    
Visibility 10 miles    
Events      
T = Trace of Precipitation, MM = Missing Value Source: NWS Daily Summary

Daily Weather History Graph

Daily Weather History Graph

Search for Another Location

Airport:

Trip Planner

Search our weather history database for the weather conditions in past years. The results will help you decide how hot, cold, wet, or windy it might be!

Date:

Astronomy

Dec. 27, 2013 Rise Set
Actual Time 7:15 AM CST 5:30 PM CST
Civil Twilight 6:49 AM CST 5:56 PM CST
Nautical Twilight 6:19 AM CST 6:26 PM CST
Astronomical Twilight 5:50 AM CST 6:55 PM CST
Moon 2:02 AM CST (12/27) 1:29 PM CST (12/27)
Length of Visible Light 11h 07m
Length of Day
10h 15m
Waning Crescent, 28% of the Moon is Illuminated
Dec 27
Waning Crescent
Jan 1
New
Jan 7
First Quarter
Jan 15
Full
Jan 23
Last Quarter

Hourly Weather History & Observations

Time (CST) Temp. Dew Point Humidity Pressure Visibility Wind Dir Wind Speed Gust Speed Precip Events Conditions
12:15 AM 53.6 °F 44.6 °F 72% 30.32 in 10.0 mi NNW 5.8 mph - N/A   Clear
12:35 AM 53.6 °F 44.6 °F 72% 30.32 in 10.0 mi NNW 4.6 mph - N/A   Clear
12:55 AM 53.6 °F 44.6 °F 72% 30.31 in 9.0 mi North 5.8 mph - N/A   Clear
1:15 AM 53.6 °F 44.6 °F 72% 30.31 in 9.0 mi North 5.8 mph - N/A   Clear
1:35 AM 53.6 °F 39.2 °F 58% 30.31 in 10.0 mi North 6.9 mph - N/A   Clear
1:55 AM 53.6 °F 37.4 °F 54% 30.31 in 10.0 mi North 8.1 mph - N/A   Clear
2:15 AM 53.6 °F 37.4 °F 54% 30.31 in 10.0 mi North 8.1 mph - N/A   Clear
2:35 AM 51.8 °F 39.2 °F 62% 30.31 in 10.0 mi North 6.9 mph - N/A   Clear
2:55 AM 51.8 °F 41.0 °F 67% 30.31 in 10.0 mi North 5.8 mph - N/A   Clear
3:35 AM 50.0 °F 41.0 °F 71% 30.31 in 9.0 mi North 6.9 mph - N/A   Clear
3:55 AM 50.0 °F 41.0 °F 71% 30.30 in 9.0 mi North 5.8 mph - N/A   Clear
4:15 AM 50.0 °F 42.8 °F 76% 30.31 in 10.0 mi North 5.8 mph - N/A   Clear
4:35 AM 50.0 °F 42.8 °F 76% 30.32 in 9.0 mi North 4.6 mph - N/A   Clear
4:55 AM 50.0 °F 42.8 °F 76% 30.32 in 9.0 mi NNE 3.5 mph - N/A   Clear
5:15 AM 50.0 °F 42.8 °F 76% 30.32 in 9.0 mi NNE 3.5 mph - N/A   Clear
5:35 AM 51.8 °F 41.0 °F 67% 30.33 in 10.0 mi NE 9.2 mph - N/A   Clear
5:55 AM 50.0 °F 41.0 °F 71% 30.33 in 10.0 mi NE 6.9 mph - N/A   Clear
6:15 AM 50.0 °F 41.0 °F 71% 30.34 in 10.0 mi NNE 5.8 mph - N/A   Clear
6:35 AM 50.0 °F 41.0 °F 71% 30.34 in 10.0 mi NE 8.1 mph - N/A   Clear
6:55 AM 50.0 °F 41.0 °F 71% 30.34 in 10.0 mi NE 8.1 mph - N/A   Clear
7:15 AM 50.0 °F 41.0 °F 71% 30.35 in 10.0 mi NE 8.1 mph - N/A   Clear
7:35 AM 50.0 °F 41.0 °F 71% 30.36 in 10.0 mi ENE 8.1 mph - N/A   Clear
7:55 AM 50.0 °F 41.0 °F 71% 30.36 in 10.0 mi ENE 9.2 mph - N/A   Clear
8:15 AM 50.0 °F 39.2 °F 66% 30.37 in 10.0 mi NE 6.9 mph - N/A   Clear
8:35 AM 50.0 °F 39.2 °F 66% 30.38 in 10.0 mi NE 5.8 mph - N/A   Clear
8:55 AM 51.8 °F 41.0 °F 67% 30.39 in 10.0 mi ENE 4.6 mph - N/A   Clear
9:15 AM 51.8 °F 39.2 °F 62% 30.39 in 10.0 mi ENE 8.1 mph - N/A   Clear
9:35 AM 53.6 °F 39.2 °F 58% 30.39 in 10.0 mi ENE 9.2 mph - N/A   Clear
9:55 AM 53.6 °F 37.4 °F 54% 30.38 in 10.0 mi NE 9.2 mph - N/A   Clear
10:15 AM 55.4 °F 37.4 °F 51% 30.38 in 10.0 mi ENE 5.8 mph - N/A   Clear
10:35 AM 55.4 °F 37.4 °F 51% 30.39 in 10.0 mi ENE 10.4 mph - N/A   Clear
10:55 AM 55.4 °F 37.4 °F 51% 30.39 in 10.0 mi NE 8.1 mph - N/A   Clear
11:15 AM 55.4 °F 37.4 °F 51% 30.38 in 10.0 mi NE 8.1 mph - N/A   Clear
11:35 AM 55.4 °F 37.4 °F 51% 30.37 in 10.0 mi ENE 10.4 mph - N/A   Clear
11:55 AM 55.4 °F 37.4 °F 51% 30.36 in 10.0 mi NE 10.4 mph - N/A   Clear
12:15 PM 55.4 °F 37.4 °F 51% 30.35 in 10.0 mi ENE 13.8 mph 17.3 mph N/A   Clear
12:35 PM 57.2 °F 37.4 °F 48% 30.34 in 10.0 mi ENE 8.1 mph - N/A   Clear
12:55 PM 57.2 °F 37.4 °F 48% 30.34 in 10.0 mi NNE 6.9 mph - N/A   Clear
1:15 PM 57.2 °F 37.4 °F 48% 30.32 in 10.0 mi Calm Calm - N/A   Clear
1:35 PM 57.2 °F 35.6 °F 44% 30.31 in 10.0 mi ENE 11.5 mph - N/A   Clear
1:55 PM 57.2 °F 35.6 °F 44% 30.31 in 10.0 mi NNE 9.2 mph - N/A   Clear
2:15 PM 57.2 °F 35.6 °F 44% 30.30 in 10.0 mi NE 8.1 mph - N/A   Clear
2:55 PM 55.4 °F 33.8 °F 44% 30.31 in 10.0 mi NNE 5.8 mph - N/A   Clear
3:15 PM 55.4 °F 33.8 °F 44% 30.30 in 10.0 mi NE 12.7 mph - N/A   Clear
3:35 PM 55.4 °F 35.6 °F 47% 30.30 in 10.0 mi NE 9.2 mph - N/A   Clear
3:55 PM 55.4 °F 35.6 °F 47% 30.30 in 10.0 mi NE 10.4 mph - N/A   Clear
4:15 PM 55.4 °F 35.6 °F 47% 30.31 in 10.0 mi NE 9.2 mph - N/A   Clear
4:35 PM 55.4 °F 35.6 °F 47% 30.31 in 10.0 mi NE 8.1 mph - N/A   Clear
4:55 PM 53.6 °F 35.6 °F 51% 30.31 in 10.0 mi NE 9.2 mph - N/A   Clear
5:15 PM 53.6 °F 35.6 °F 51% 30.30 in 10.0 mi North 9.2 mph 17.3 mph N/A   Clear
5:35 PM 53.6 °F 35.6 °F 51% 30.30 in 10.0 mi NE 10.4 mph - N/A   Clear
5:55 PM 53.6 °F 35.6 °F 51% 30.29 in 10.0 mi North 11.5 mph 19.6 mph N/A   Clear
6:15 PM 53.6 °F 35.6 °F 51% 30.30 in 10.0 mi North 8.1 mph - N/A   Clear
6:35 PM 53.6 °F 35.6 °F 51% 30.30 in 10.0 mi NE 8.1 mph - N/A   Clear
6:55 PM 53.6 °F 35.6 °F 51% 30.30 in 10.0 mi NNE 11.5 mph - N/A   Clear
7:15 PM 53.6 °F 35.6 °F 51% 30.31 in 10.0 mi NNE 6.9 mph - N/A   Clear
7:35 PM 53.6 °F 35.6 °F 51% 30.32 in 10.0 mi North 4.6 mph - N/A   Clear
7:55 PM 51.8 °F 35.6 °F 54% 30.33 in 10.0 mi North 5.8 mph - N/A   Clear
8:15 PM 53.6 °F 35.6 °F 51% 30.32 in 10.0 mi NNE 11.5 mph - N/A   Clear
8:35 PM 51.8 °F 33.8 °F 50% 30.33 in 10.0 mi NNE 6.9 mph - N/A   Clear
8:55 PM 51.8 °F 35.6 °F 54% 30.32 in 10.0 mi NE 8.1 mph - N/A   Clear
9:15 PM 51.8 °F 35.6 °F 54% 30.31 in 10.0 mi NNE 11.5 mph 17.3 mph N/A   Clear
9:35 PM 51.8 °F 35.6 °F 54% 30.31 in 10.0 mi NNE 10.4 mph - N/A   Clear
9:55 PM 51.8 °F 35.6 °F 54% 30.30 in 10.0 mi NE 10.4 mph - N/A   Clear
10:15 PM 51.8 °F 32.0 °F 47% 30.30 in 10.0 mi NNE 8.1 mph 16.1 mph N/A   Clear
10:35 PM 50.0 °F 32.0 °F 50% 30.31 in 10.0 mi NNE 6.9 mph - N/A   Clear
10:55 PM 51.8 °F 32.0 °F 47% 30.29 in 10.0 mi NNE 11.5 mph - N/A   Clear
11:35 PM 50.0 °F 32.0 °F 50% 30.30 in 10.0 mi NE 10.4 mph - N/A   Clear
11:55 PM 50.0 °F 32.0 °F 50% 30.28 in 10.0 mi NNE 6.9 mph - N/A   Clear